1506135600.87,56338,14.44,73552.3,-1.55,-2.35,-2.35,0,*5A
1506135602.06,56339,14.44,73554.3,-1.55,-2.35,-2.35,0,*5B
1506135603.34,56340,14.5,73554.3,-1.53,-2.55,-2.63,0,*56
1506135604.56,56341,14.44,73550.3,-1.53,-2.79,-2.79,0,*52
1506135605.81,56342,14.44,73546.8,-1.55,-2.47,-2.47,0,*57
1506135607.01,56343,14.44,73554.8,-1.55,-2.43,-2.43,0,*56
1506135608.2,56344,14.44,73554.8,-1.55,-2.35,-2.35,0,*51
1506135609.4,56345,14.44,73548.3,-1.55,-2.35,-2.35,0,*50
1506135610.6,56346,14.44,73548.3,-1.55,-2.43,-2.43,0,*53
1506135611.85,56347,14.44,73550.5,-1.59,-2.47,-2.55,0,*5D
1506135613.11,56348,14.44,73550.3,-1.55,-2.47,-2.47,0,*5D
1506135614.3,56349,14.44,73548.3,-1.55,-2.43,-2.43,0,*5C
1506135615.5,56350,14.44,73548.5,-1.59,-2.43,-2.43,0,*58
1506135616.75,56351,14.5,73550.8,-1.55,-2.55,-2.55,0,*55
1506135617.98,56352,14.44,73552.8,-1.55,-2.43,-2.47,0,*52
1506135619.17,56353,14.44,73552.0,-1.55,-2.43,-2.35,0,*56
1506135620.37,56354,14.44,73552.0,-1.55,-2.43,-2.43,0,*50
1506135621.62,56355,14.44,73554.5,-1.55,-2.47,-2.47,0,*51
1506135622.88,56356,14.44,73554.8,-1.55,-2.55,-2.55,0,*52
1506135624.13,56357,14.44,73560.8,-1.59,-2.47,-2.55,0,*5C
1506135625.39,56358,14.44,73558.8,-1.55,-2.47,-2.55,0,*5F
1506135626.64,56359,14.44,73552.8,-1.59,-2.55,-2.55,0,*51
1506135627.89,56360,14.44,73550.3,-1.59,-2.59,-2.59,0,*5B
1506135629.14,56361,14.44,73558.0,-1.59,-2.59,-2.59,0,*5A
1506135630.4,56362,14.44,73548.8,-1.59,-2.47,-2.55,0,*5A
1506135631.65,56363,14.44,73548.0,-1.59,-2.55,-2.67,0,*59
1506135632.91,56364,14.44,73544.3,-1.59,-2.47,-2.55,0,*5C
1506135634.17,56365,14.44,73544.0,-1.59,-2.47,-2.55,0,*5D
1506135635.43,56366,14.44,73544.3,-1.59,-2.47,-2.55,0,*5E
1506135636.68,56367,14.44,73544.0,-1.55,-2.47,-2.55,0,*53
1506135637.93,56368,14.44,73544.0,-1.59,-2.55,-2.55,0,*53
1506135639.19,56369,14.44,73542.8,-1.59,-2.55,-2.47,0,*51
1506135640.44,56370,14.44,73540.8,-1.63,-2.59,-2.59,0,*53
1506135641.69,56371,14.44,73556.5,-1.59,-2.55,-2.47,0,*58
1506135642.97,56372,14.44,73544.8,-1.61,-2.51,-2.59,0,*5B
1506135644.24,56373,14.44,73542.0,-1.61,-2.59,-2.59,0,*52
1506135645.52,56374,14.44,73538.8,-1.61,-2.63,-2.63,0,*55
1506135646.8,56375,14.44,73542.8,-1.61,-2.51,-2.51,0,*54
1506135648.08,56376,14.44,73542.3,-1.61,-2.51,-2.51,0,*57
1506135649.36,56377,14.44,73540.0,-1.61,-2.59,-2.59,0,*56
1506135650.63,56378,14.44,73538.0,-1.61,-2.59,-2.51,0,*51
1506135651.89,56379,14.44,73540.5,-1.61,-2.47,-2.39,0,*51
1506135653.17,56380,14.44,73540.8,-1.61,-2.47,-2.47,0,*5E
1506135654.43,56381,14.44,73546.8,-1.63,-2.47,-2.47,0,*5D
1506135655.68,56382,14.44,73546.8,-1.63,-2.59,-2.51,0,*56
1506135656.93,56383,14.44,73542.8,-1.63,-2.75,-2.75,0,*5F
1506135658.21,56384,14.44,73542.5,-1.61,-2.75,-2.71,0,*5E
1506135659.49,56385,14.44,73548.8,-1.61,-2.63,-2.63,0,*5B
1506135660.77,56386,14.44,73540.0,-1.61,-2.71,-2.71,0,*58
1506135662.02,56387,14.44,73544.3,-1.63,-2.59,-2.59,0,*5B
1506135663.28,56388,14.44,73540.0,-1.63,-2.47,-2.51,0,*53
1506135664.53,56389,14.44,73542.5,-1.63,-2.47,-2.47,0,*55
1506135665.79,56390,14.44,73552.8,-1.63,-2.51,-2.47,0,*5A
1506135667.06,56391,14.44,73558.0,-1.61,-2.59,-2.59,0,*5E
1506135668.31,56392,14.44,73548.0,-1.63,-2.63,-2.71,0,*5C
1506135669.6,56393,14.44,73540.0,-1.61,-2.63,-2.71,0,*5F
1506135670.85,56394,14.44,73544.5,-1.63,-2.63,-2.63,0,*59
1506135672.13,56395,14.44,73544.5,-1.61,-2.51,-2.51,0,*5A
1506135673.41,56396,14.44,73542.8,-1.61,-2.59,-2.51,0,*51
1506135674.67,56397,14.44,73544.8,-1.63,-2.47,-2.47,0,*5A
1506135675.93,56398,14.44,73554.3,-1.63,-2.47,-2.51,0,*52
1506135677.18,56399,14.5,73568.8,-1.63,-2.47,-2.47,0,*54
1506135678.44,56400,14.44,73548.5,-1.63,-2.51,-2.51,0,*53
1506135679.69,56401,14.5,73556.0,-1.63,-2.59,-2.59,0,*52
1506135680.94,56402,14.44,73554.5,-1.63,-2.63,-2.63,0,*51
1506135682.2,56403,14.44,73554.0,-1.63,-2.71,-2.63,0,*53
1506135683.44,56404,14.44,73552.0,-1.63,-2.59,-2.59,0,*57
1506135684.72,56405,14.44,73548.5,-1.65,-2.63,-2.63,0,*50
1506135685.97,56406,14.44,73546.8,-1.67,-2.71,-2.67,0,*56
1506135687.25,56407,14.44,73544.0,-1.65,-2.63,-2.63,0,*52
1506135688.51,56408,14.44,73542.5,-1.67,-2.71,-2.71,0,*5F
1506135689.78,56409,14.44,73548.8,-1.65,-2.75,-2.67,0,*5F
1506135691.05,56410,14.44,73550.5,-1.65,-2.67,-2.67,0,*54
1506135692.33,56411,14.44,73552.5,-1.65,-2.67,-2.67,0,*55
1506135693.52,56412,14.44,73554.5,-1.67,-2.87,-2.91,0,*53
1506135694.72,56413,14.44,73554.5,-1.67,-3.03,-3.11,0,*56
1506135695.91,56414,14.44,73544.8,-1.67,-3.19,-3.19,0,*52
1506135697.12,56415,14.44,73538.3,-1.67,-2.95,-2.95,0,*53
1506135698.31,56416,14.44,73544.3,-1.67,-2.91,-2.91,0,*50
1506135699.5,56417,14.44,73554.3,-1.67,-2.91,-2.91,0,*51
1506135700.72,56418,14.44,73566.0,-1.69,-2.79,-2.79,0,*50
1506135701.97,56419,14.5,73560.0,-1.69,-2.79,-2.71,0,*59
1506135703.22,56420,14.44,73558.5,-1.69,-2.71,-2.79,0,*53
1506135704.49,56421,14.44,73568.0,-1.69,-2.71,-2.67,0,*5D
1506135705.75,56422,14.44,73568.5,-1.71,-2.63,-2.71,0,*53
1506135707.02,56423,14.5,73564.3,-1.69,-2.59,-2.59,0,*58
1506135708.27,56424,14.44,73558.8,-1.71,-2.59,-2.59,0,*56
1506135709.54,56425,14.44,73556.8,-1.69,-2.55,-2.59,0,*52
1506135710.79,56426,14.44,73558.8,-1.71,-2.51,-2.59,0,*5C
1506135712.06,56427,14.44,73552.5,-1.69,-2.55,-2.59,0,*50
1506135713.33,56428,14.44,73550.3,-1.69,-2.59,-2.59,0,*53
1506135714.6,56429,14.44,73548.3,-1.69,-2.67,-2.67,0,*52
1506135715.85,56430,14.44,73558.0,-1.71,-2.71,-2.71,0,*53
1506135717.13,56431,14.44,73546.5,-1.69,-2.59,-2.71,0,*51
1506135718.37,56432,14.44,73558.8,-1.69,-2.71,-2.79,0,*50
1506135719.62,56433,14.44,73556.5,-1.71,-2.71,-2.75,0,*54
1506135720.88,56434,14.44,73546.0,-1.71,-2.75,-2.75,0,*57
1506135722.15,56435,14.44,73548.8,-1.69,-2.67,-2.59,0,*52
1506135723.4,56436,14.5,73552.8,-1.71,-2.63,-2.63,0,*55
1506135724.65,56437,14.44,73552.3,-1.71,-2.51,-2.59,0,*5C
1506135725.93,56438,14.44,73568.8,-1.69,-2.55,-2.55,0,*52
1506135727.17,56439,14.44,73558.5,-1.71,-2.59,-2.59,0,*5A
1506135728.45,56440,14.44,73540.0,-1.69,-2.47,-2.47,0,*5D
1506135729.73,56441,14.44,73544.0,-1.69,-2.47,-2.55,0,*5F
1506135731.01,56442,14.44,73546.8,-1.69,-2.47,-2.47,0,*5F
1506135732.29,56443,14.5,73548.8,-1.69,-2.47,-2.47,0,*5E
1506135733.55,56444,14.44,73548.8,-1.71,-2.51,-2.51,0,*50
1506135734.8,56445,14.44,73538.5,-1.69,-2.47,-2.43,0,*5C
1506135736.01,56446,14.44,73540.8,-1.69,-2.43,-2.43,0,*5B
1506135737.23,56447,14.5,73536.0,-1.69,-2.43,-2.43,0,*5A
1506135738.49,56448,14.44,73526.5,-1.71,-2.47,-2.47,0,*5C
1506135739.77,56449,14.44,73522.0,-1.69,-2.47,-2.47,0,*54
1506135741.03,56450,14.5,73556.0,-1.69,-2.59,-2.59,0,*5C
1506135742.29,56451,14.44,73546.0,-1.71,-2.63,-2.63,0,*54
1506135743.57,56452,14.44,73542.5,-1.69,-2.47,-2.55,0,*5D
1506135744.82,56453,14.44,73552.5,-1.69,-2.43,-2.47,0,*5B
1506135746.07,56454,14.44,73554.3,-1.69,-2.43,-2.47,0,*5C
1506135747.33,56455,14.44,73552.8,-1.71,-2.47,-2.51,0,*57
1506135748.6,56456,14.44,73552.0,-1.69,-2.55,-2.55,0,*5A
1506135749.88,56457,14.44,73550.3,-1.69,-2.47,-2.47,0,*5B
1506135751.16,56458,14.5,73556.5,-1.69,-2.47,-2.47,0,*54
1506135752.38,56459,14.44,73560.0,-1.69,-2.43,-2.43,0,*55
1506135753.6,56460,14.44,73552.3,-1.69,-2.43,-2.43,0,*5F
1506135754.81,56461,14.44,73548.5,-1.69,-2.43,-2.43,0,*5E
1506135756.03,56462,14.44,73558.5,-1.69,-2.43,-2.43,0,*5D
1506135757.29,56463,14.44,73550.8,-1.71,-2.47,-2.51,0,*52
1506135758.56,56464,14.44,73536.0,-1.69,-2.59,-2.59,0,*5B
1506135759.83,56465,14.44,73532.3,-1.69,-2.59,-2.59,0,*5A
1506135761.11,56466,14.44,73546.3,-1.69,-2.47,-2.47,0,*59
1506135762.38,56467,14.5,73544.0,-1.69,-2.47,-2.55,0,*5B
1506135763.66,56468,14.44,73560.5,-1.69,-2.47,-2.47,0,*57
1506135764.94,56469,14.44,73542.5,-1.69,-2.47,-2.47,0,*56
1506135766.22,56470,14.44,73536.0,-1.69,-2.47,-2.47,0,*5E
1506135767.5,56471,14.44,73530.8,-1.69,-2.55,-2.55,0,*5F
1506135768.77,56472,14.44,73540.0,-1.69,-2.55,-2.47,0,*5F
1506135770.05,56473,14.5,73548.5,-1.69,-2.67,-2.55,0,*5C
1506135771.32,56474,14.44,73554.0,-1.69,-2.59,-2.59,0,*5A
1506135772.57,56475,14.44,73554.8,-1.71,-2.59,-2.51,0,*5A
1506135773.84,56476,14.44,73558.8,-1.69,-2.55,-2.55,0,*58
1506135775.09,56477,14.44,73560.5,-1.71,-2.51,-2.59,0,*58
1506135776.35,56478,14.44,73548.3,-1.71,-2.51,-2.51,0,*5F
1506135777.63,56479,14.44,73546.8,-1.69,-2.47,-2.55,0,*54
1506135778.9,56480,14.44,73564.0,-1.69,-2.59,-2.59,0,*51
1506135780.18,56481,14.44,73554.0,-1.69,-2.47,-2.55,0,*53
1506135781.43,56482,14.44,73560.5,-1.71,-2.59,-2.51,0,*52
1506135782.68,56483,14.44,73570.8,-1.71,-2.59,-2.51,0,*53
1506135783.96,56484,14.44,73560.8,-1.69,-2.47,-2.47,0,*55
1506135785.24,56485,14.44,73572.5,-1.69,-2.47,-2.51,0,*53
1506135786.49,56486,14.44,73558.3,-1.71,-2.59,-2.63,0,*57
1506135787.68,56487,14.44,73552.3,-1.71,-2.83,-2.83,0,*5F
1506135788.94,56488,14.44,73556.5,-1.71,-2.71,-2.63,0,*53
1506135790.19,56489,14.44,73560.0,-1.71,-2.51,-2.51,0,*51
1506135791.44,56490,14.5,73566.5,-1.69,-2.79,-2.71,0,*58
1506135792.72,56491,14.5,73566.3,-1.69,-2.67,-2.71,0,*56
1506135793.95,56492,14.44,73560.3,-1.71,-2.79,-2.71,0,*53
1506135795.2,56493,14.44,73566.0,-1.71,-2.63,-2.63,0,*5A
1506135796.45,56494,14.44,73564.8,-1.71,-2.63,-2.59,0,*54
1506135797.7,56495,14.5,73562.8,-1.71,-2.59,-2.59,0,*5C
1506135798.96,56496,14.44,73558.0,-1.71,-2.51,-2.51,0,*5F
1506135800.24,56497,14.44,73560.3,-1.69,-2.47,-2.47,0,*57
1506135801.49,56498,14.44,73558.0,-1.71,-2.47,-2.51,0,*56
1506135802.75,56499,14.44,73568.8,-1.71,-2.51,-2.51,0,*50
1506135804.0,56500,14.44,73574.5,-1.71,-2.59,-2.51,0,*59
1506135805.26,56501,14.44,73562.0,-1.71,-2.51,-2.51,0,*50
1506135806.51,56502,14.44,73552.3,-1.71,-2.59,-2.51,0,*5B
1506135807.79,56503,14.44,73560.0,-1.69,-2.55,-2.47,0,*58
1506135809.06,56504,14.44,73552.0,-1.73,-2.51,-2.51,0,*57
1506135810.33,56505,14.44,73542.3,-1.73,-2.71,-2.75,0,*52
1506135811.61,56506,14.44,73544.8,-1.73,-2.63,-2.71,0,*56
1506135812.86,56507,14.44,73546.5,-1.71,-2.59,-2.59,0,*56
1506135814.11,56508,14.44,73548.5,-1.71,-2.51,-2.51,0,*59
1506135815.36,56509,14.44,73552.5,-1.71,-2.51,-2.59,0,*50
1506135816.64,56510,14.44,73554.3,-1.73,-2.51,-2.51,0,*52
1506135817.91,56511,14.44,73546.0,-1.73,-2.51,-2.51,0,*53
1506135819.16,56512,14.44,73550.3,-1.71,-2.59,-2.51,0,*5A
1506135820.41,56513,14.44,73554.3,-1.71,-2.51,-2.59,0,*5B
1506135821.67,56514,14.44,73552.8,-1.71,-2.71,-2.63,0,*57
1506135822.92,56515,14.44,73554.5,-1.71,-2.51,-2.59,0,*5D
1506135824.16,56516,14.44,73556.3,-1.71,-2.59,-2.59,0,*56
1506135825.42,56517,14.44,73552.5,-1.71,-2.63,-2.63,0,*57
1506135826.7,56518,14.44,73552.8,-1.73,-2.63,-2.63,0,*5A
1506135827.97,56519,14.44,73554.3,-1.73,-2.51,-2.51,0,*5B
1506135829.25,56520,14.44,73554.3,-1.73,-2.51,-2.51,0,*51
1506135830.52,56521,14.44,73546.8,-1.73,-2.51,-2.47,0,*57
1506135831.8,56522,14.44,73548.0,-1.73,-2.47,-2.47,0,*53
1506135833.04,56523,14.44,73546.8,-1.73,-2.43,-2.47,0,*56
1506135834.3,56524,14.44,73558.0,-1.71,-2.47,-2.47,0,*57
1506135835.56,56525,14.44,73548.5,-1.71,-2.51,-2.51,0,*56
1506135836.81,56526,14.44,73550.8,-1.71,-2.59,-2.63,0,*5C
1506135838.06,56527,14.44,73546.0,-1.71,-2.63,-2.63,0,*54
1506135839.32,56528,14.44,73546.8,-1.71,-2.63,-2.51,0,*5A
1506135840.59,56529,14.44,73548.3,-1.73,-2.59,-2.59,0,*58
1506135841.85,56530,14.5,73554.8,-1.73,-2.59,-2.59,0,*50
1506135843.11,56531,14.44,73544.5,-1.75,-2.55,-2.55,0,*57
1506135844.38,56532,14.5,73542.8,-1.73,-2.51,-2.51,0,*52
1506135845.66,56533,14.44,73534.3,-1.73,-2.51,-2.51,0,*53
1506135846.94,56534,14.5,73546.0,-1.73,-2.63,-2.51,0,*55
1506135848.22,56535,14.5,73552.8,-1.73,-2.63,-2.63,0,*55
1506135849.49,56536,14.44,73548.0,-1.73,-2.63,-2.59,0,*5F
1506135850.7,56537,14.5,73548.5,-1.73,-2.83,-2.83,0,*57
1506135851.96,56538,14.44,73546.0,-1.75,-2.75,-2.75,0,*5E
1506135853.21,56539,14.44,73548.8,-1.75,-2.63,-2.55,0,*5A
1506135854.49,56540,14.44,73548.3,-1.73,-2.51,-2.51,0,*57
1506135855.74,56541,14.44,73552.5,-1.75,-2.55,-2.55,0,*50
1506135856.99,56542,14.44,73554.3,-1.75,-2.55,-2.55,0,*53
1506135858.27,56543,14.44,73554.8,-1.73,-2.51,-2.51,0,*54
1506135859.52,56544,14.44,73548.0,-1.75,-2.55,-2.55,0,*55
1506135860.78,56545,14.44,73548.5,-1.75,-2.63,-2.63,0,*54
1506135862.03,56546,14.44,73542.3,-1.75,-2.55,-2.55,0,*57
1506135863.28,56547,14.44,73540.0,-1.75,-2.55,-2.55,0,*56
1506135864.54,56548,14.44,73540.0,-1.75,-2.63,-2.55,0,*5C
1506135865.81,56549,14.5,73558.5,-1.73,-2.51,-2.51,0,*5E
1506135867.07,56550,14.5,73544.3,-1.75,-2.55,-2.55,0,*50
1506135868.34,56551,14.44,73550.5,-1.73,-2.51,-2.51,0,*57
1506135869.62,56552,14.44,73554.3,-1.73,-2.51,-2.51,0,*54
1506135870.87,56553,14.44,73544.3,-1.71,-2.47,-2.47,0,*57
1506135872.13,56554,14.44,73542.5,-1.75,-2.51,-2.51,0,*54
1506135873.38,56555,14.44,73538.3,-1.71,-2.47,-2.47,0,*51
1506135874.66,56556,14.44,73544.5,-1.73,-2.47,-2.47,0,*50
1506135875.94,56557,14.44,73538.8,-1.73,-2.47,-2.47,0,*51
1506135877.21,56558,14.44,73544.5,-1.73,-2.47,-2.47,0,*5E
1506135878.49,56559,14.44,73546.8,-1.73,-2.47,-2.47,0,*5F
1506135879.74,56560,14.5,73546.5,-1.73,-2.47,-2.43,0,*51
1506135881.01,56561,14.44,73544.3,-1.73,-2.47,-2.47,0,*54
1506135882.27,56562,14.44,73548.5,-1.75,-2.51,-2.51,0,*51
1506135883.52,56563,14.44,73550.0,-1.75,-2.51,-2.51,0,*50
1506135884.77,56564,14.44,73554.5,-1.73,-2.47,-2.43,0,*55
1506135885.98,56565,14.44,73558.8,-1.73,-2.43,-2.43,0,*50
1506135887.2,56566,14.44,73554.5,-1.73,-2.43,-2.43,0,*53
1506135888.42,56567,14.44,73544.3,-1.73,-2.43,-2.43,0,*52
1506135889.63,56568,14.44,73548.3,-1.73,-2.43,-2.43,0,*5D
1506135890.91,56569,14.5,73558.3,-1.73,-2.47,-2.47,0,*5C
1506135892.1,56570,14.44,73556.8,-1.71,-2.43,-2.43,0,*56
1506135893.33,56571,14.44,73554.3,-1.71,-2.47,-2.43,0,*53
1506135894.58,56572,14.44,73558.8,-1.71,-2.47,-2.47,0,*54
1506135895.81,56573,14.5,73548.5,-1.71,-2.43,-2.47,0,*51
1506135897.08,56574,14.44,73548.3,-1.73,-2.51,-2.51,0,*50
1506135898.36,56575,14.5,73544.8,-1.69,-2.47,-2.47,0,*5A
1506135899.61,56576,14.44,73540.0,-1.71,-2.51,-2.59,0,*58
1506135900.87,56577,14.44,73546.0,-1.71,-2.51,-2.51,0,*51
1506135902.14,56578,14.44,73546.8,-1.73,-2.51,-2.59,0,*54
1506135903.38,56579,14.44,73546.5,-1.73,-2.75,-2.91,0,*57
1506135904.57,56580,14.5,73544.8,-1.75,-2.79,-2.91,0,*5B
1506135905.85,56581,14.44,73540.3,-1.73,-2.63,-2.63,0,*5A
1506135907.13,56582,14.44,73542.3,-1.73,-2.51,-2.51,0,*59
1506135908.38,56583,14.5,73538.0,-1.75,-2.55,-2.55,0,*5E
1506135909.63,56584,14.44,73534.0,-1.75,-2.55,-2.51,0,*5D
1506135910.89,56585,14.44,73536.3,-1.75,-2.55,-2.51,0,*5C
1506135912.14,56586,14.44,73550.3,-1.75,-2.55,-2.55,0,*5B
1506135913.39,56587,14.5,73542.8,-1.75,-2.55,-2.55,0,*5A
1506135914.66,56588,14.44,73536.3,-1.73,-2.59,-2.55,0,*5F
1506135915.94,56589,14.44,73532.3,-1.73,-2.51,-2.51,0,*52
1506135917.21,56590,14.44,73524.3,-1.73,-2.51,-2.51,0,*5A
1506135918.47,56591,14.44,73524.8,-1.75,-2.55,-2.63,0,*58
1506135919.72,56592,14.44,73526.3,-1.75,-2.67,-2.63,0,*5A
1506135920.97,56593,14.44,73542.0,-1.75,-2.63,-2.55,0,*5A
1506135922.22,56594,14.44,73534.0,-1.75,-2.67,-2.67,0,*58
1506135923.47,56595,14.44,73536.0,-1.75,-2.67,-2.67,0,*59
1506135924.72,56596,14.44,73532.5,-1.75,-2.67,-2.67,0,*5A
1506135926.0,56597,14.44,73522.0,-1.73,-2.63,-2.63,0,*5D
1506135927.25,56598,14.44,73528.3,-1.75,-2.55,-2.55,0,*54
1506135928.53,56599,14.5,73542.5,-1.73,-2.51,-2.51,0,*53
1506135929.78,56600,14.44,73530.5,-1.75,-2.55,-2.55,0,*56
1506135931.04,56601,14.44,73534.8,-1.75,-2.55,-2.51,0,*53
1506135932.31,56602,14.44,73544.3,-1.73,-2.47,-2.47,0,*52
1506135933.59,56603,14.44,73526.8,-1.73,-2.47,-2.47,0,*53
1506135934.85,56604,14.44,73528.8,-1.75,-2.63,-2.55,0,*57
1506135936.1,56605,14.44,73536.8,-1.75,-2.67,-2.63,0,*57
1506135937.35,56606,14.5,73534.0,-1.75,-2.63,-2.55,0,*55
1506135938.61,56607,14.44,73532.0,-1.75,-2.55,-2.55,0,*51
1506135939.86,56608,14.44,73530.0,-1.75,-2.55,-2.55,0,*5E
1506135941.11,56609,14.44,73532.8,-1.75,-2.55,-2.55,0,*5F
1506135942.36,56610,14.44,73536.3,-1.75,-2.55,-2.55,0,*57
1506135943.63,56611,14.5,73540.0,-1.73,-2.51,-2.59,0,*58
1506135944.91,56612,14.44,73540.8,-1.77,-2.55,-2.55,0,*57
1506135946.19,56613,14.44,73538.3,-1.77,-2.55,-2.55,0,*56
1506135947.47,56614,14.44,73546.3,-1.77,-2.55,-2.55,0,*51
1506135948.74,56615,14.44,73544.0,-1.73,-2.51,-2.51,0,*54
1506135950.0,56616,14.44,73530.3,-1.75,-2.63,-2.63,0,*51
1506135951.22,56617,14.44,73526.3,-1.75,-2.75,-2.79,0,*5C
1506135952.47,56618,14.44,73528.0,-1.75,-2.67,-2.63,0,*5B
1506135953.75,56619,14.44,73528.3,-1.77,-2.55,-2.55,0,*5C
1506135955.04,56620,14.44,73538.0,-1.77,-2.63,-2.63,0,*56
1506135956.32,56621,14.44,73536.5,-1.77,-2.63,-2.55,0,*52
1506135957.57,56622,14.44,73522.5,-1.81,-2.63,-2.71,0,*5E
1506135958.81,56623,14.44,73532.3,-1.81,-2.75,-2.71,0,*58
1506135960.09,56624,14.5,73538.8,-1.77,-2.75,-2.75,0,*52
1506135961.37,56625,14.44,73536.5,-1.77,-2.67,-2.67,0,*53
1506135962.65,56626,14.44,73528.3,-1.77,-2.55,-2.55,0,*50
1506135963.93,56627,14.44,73528.0,-1.77,-2.63,-2.63,0,*51
1506135965.22,56628,14.5,73524.8,-1.77,-2.63,-2.55,0,*5B
1506135966.5,56629,14.44,73530.5,-1.77,-2.63,-2.55,0,*5A
1506135967.75,56630,14.44,73534.0,-1.81,-2.63,-2.71,0,*5D
1506135969.03,56631,14.5,73544.3,-1.77,-2.55,-2.55,0,*56
1506135970.27,56632,14.44,73538.8,-1.81,-2.75,-2.75,0,*5C
1506135971.49,56633,14.44,73538.8,-1.77,-2.91,-2.87,0,*53
1506135972.74,56634,14.5,73536.8,-1.77,-2.75,-2.79,0,*5F
1506135973.93,56635,14.44,73536.5,-1.81,-2.87,-2.87,0,*5B
1506135975.13,56636,14.44,73540.3,-1.81,-2.87,-2.87,0,*58
1506135976.31,56637,14.44,73540.0,-1.81,-2.83,-2.83,0,*59
1506135977.56,56638,14.5,73530.5,-1.81,-2.75,-2.75,0,*56
1506135978.81,56639,14.44,73530.0,-1.81,-2.71,-2.75,0,*53
1506135980.05,56640,14.44,73528.8,-1.81,-2.71,-2.71,0,*59
1506135981.3,56641,14.5,73532.8,-1.81,-2.63,-2.71,0,*5B
1506135982.56,56642,14.44,73532.0,-1.81,-2.63,-2.63,0,*5B
1506135983.81,56643,14.44,73536.3,-1.81,-2.63,-2.63,0,*5A
1506135985.09,56644,14.5,73528.0,-1.77,-2.55,-2.55,0,*54
1506135986.33,56645,14.5,73528.3,-1.81,-2.71,-2.63,0,*5F
1506135987.58,56646,14.44,73514.5,-1.81,-2.71,-2.63,0,*5C
1506135988.83,56647,14.44,73524.5,-1.81,-2.63,-2.63,0,*5E
1506135990.11,56648,14.5,73532.5,-1.83,-2.63,-2.63,0,*53
1506135991.39,56649,14.5,73528.5,-1.77,-2.55,-2.55,0,*59
1506135992.64,56650,14.44,73532.3,-1.81,-2.63,-2.71,0,*5B
1506135993.89,56651,14.5,73538.0,-1.81,-2.63,-2.71,0,*5A
1506135995.14,56652,14.44,73534.5,-1.81,-2.63,-2.63,0,*5A
1506135996.42,56653,14.5,73534.3,-1.77,-2.55,-2.63,0,*57
1506135997.67,56654,14.44,73536.0,-1.81,-2.63,-2.71,0,*5F
1506135998.92,56655,14.44,73548.8,-1.81,-2.71,-2.63,0,*5E
1506136000.17,56656,14.5,73538.5,-1.81,-2.71,-2.71,0,*5E
1506136001.36,56657,14.44,73532.8,-1.81,-2.87,-2.87,0,*5F
1506136002.6,56658,14.44,73532.8,-1.81,-2.75,-2.75,0,*50
1506136003.85,56659,14.44,73538.0,-1.81,-2.71,-2.71,0,*51
1506136005.13,56660,14.44,73538.5,-1.83,-2.71,-2.75,0,*5D
1506136006.41,56661,14.44,73534.0,-1.83,-2.63,-2.71,0,*5B
1506136007.65,56662,14.44,73542.3,-1.85,-2.67,-2.67,0,*5D
1506136008.93,56663,14.44,73540.8,-1.83,-2.71,-2.63,0,*59
1506136010.21,56664,14.44,73546.3,-1.83,-2.71,-2.71,0,*5D
1506136011.45,56665,14.5,73546.5,-1.81,-2.71,-2.75,0,*5A
1506136012.67,56666,14.44,73550.0,-1.81,-2.83,-2.75,0,*54
1506136013.92,56667,14.44,73556.3,-1.81,-2.71,-2.75,0,*58
1506136015.19,56668,14.44,73546.8,-1.83,-2.71,-2.75,0,*55
1506136016.41,56669,14.44,73540.8,-1.83,-2.87,-2.87,0,*50
1506136017.69,56670,14.44,73534.5,-1.83,-2.75,-2.71,0,*5C
1506136018.91,56671,14.5,73522.5,-1.83,-2.87,-2.83,0,*5D
1506136020.1,56672,14.44,73520.3,-1.85,-2.79,-2.79,0,*5C
1506136021.38,56673,14.5,73534.3,-1.83,-2.75,-2.75,0,*5B
1506136022.62,56674,14.44,73542.0,-1.83,-2.75,-2.83,0,*55
1506136023.9,56675,14.44,73542.5,-1.83,-2.75,-2.75,0,*5D
1506136025.18,56676,14.44,73546.3,-1.83,-2.63,-2.71,0,*5D
1506136026.42,56677,14.44,73540.0,-1.85,-2.75,-2.75,0,*59
1506136027.67,56678,14.44,73536.5,-1.85,-2.67,-2.67,0,*56
1506136028.94,56679,14.44,73526.3,-1.83,-2.71,-2.71,0,*51
1506136030.13,56680,14.44,73516.3,-1.85,-2.79,-2.79,0,*51
1506136031.32,56681,14.5,73512.5,-1.85,-2.79,-2.79,0,*50
1506136032.53,56682,14.44,73518.8,-1.85,-2.67,-2.79,0,*5C
1506136033.78,56683,14.44,73528.8,-1.85,-2.75,-2.75,0,*52
1506136034.97,56684,14.44,73506.8,-1.85,-2.87,-2.91,0,*52
1506136036.16,56685,14.44,73518.5,-1.85,-3.11,-3.03,0,*57
1506136037.38,56686,14.44,73524.5,-1.83,-2.87,-2.91,0,*56
1506136038.57,56687,14.44,73534.8,-1.85,-2.91,-2.87,0,*51
1506136039.76,56688,14.44,73524.5,-1.85,-2.87,-2.87,0,*59
1506136040.94,56689,14.5,73538.3,-1.85,-2.91,-2.79,0,*5E
1506136042.16,56690,14.5,73538.0,-1.87,-2.87,-2.79,0,*53
1506136043.4,56691,14.44,73536.3,-1.87,-2.79,-2.75,0,*5F
1506136044.64,56692,14.44,73522.0,-1.87,-2.75,-2.79,0,*5C
1506136045.85,56693,14.44,73512.8,-1.87,-2.91,-2.87,0,*56
1506136047.06,56694,14.44,73526.0,-1.87,-2.99,-2.91,0,*5E
1506136048.25,56695,14.44,73544.3,-1.85,-2.79,-2.79,0,*55
1506136049.47,56696,14.44,73540.0,-1.85,-2.79,-2.75,0,*5A
1506136050.74,56697,14.44,73534.5,-1.87,-2.75,-2.75,0,*55
1506136052.01,56698,14.44,73534.3,-1.87,-2.75,-2.75,0,*5A
1506136053.28,56699,14.44,73536.3,-1.87,-2.75,-2.75,0,*5B
1506136054.55,56700,14.44,73532.8,-1.87,-2.75,-2.75,0,*5A
1506136055.82,56701,14.44,73542.5,-1.87,-2.67,-2.67,0,*5B
1506136057.06,56702,14.44,73534.8,-1.85,-2.67,-2.67,0,*5A
1506136058.31,56703,14.44,73538.5,-1.85,-2.67,-2.67,0,*5B
1506136059.55,56704,14.44,73532.0,-1.85,-2.67,-2.75,0,*5F
1506136060.8,56705,14.44,73538.3,-1.85,-2.67,-2.67,0,*5D
1506136061.99,56706,14.44,73540.5,-1.85,-2.87,-2.87,0,*5E
1506136063.19,56707,14.44,73536.0,-1.87,-2.91,-2.91,0,*5D
1506136064.41,56708,14.44,73534.5,-1.87,-2.79,-2.87,0,*53
1506136065.6,56709,14.44,73528.0,-1.85,-2.87,-2.79,0,*50
1506136066.79,56710,14.44,73530.5,-1.85,-2.79,-2.79,0,*59
1506136068.06,56711,14.44,73532.0,-1.87,-2.67,-2.67,0,*5A
1506136069.33,56712,14.5,73546.5,-1.87,-2.67,-2.67,0,*59
1506136070.59,56713,14.44,73536.5,-1.87,-2.67,-2.75,0,*5B
1506136071.78,56714,14.44,73534.5,-1.89,-2.79,-2.83,0,*54
1506136073.05,56715,14.44,73530.3,-1.87,-2.67,-2.67,0,*5E
1506136074.32,56716,14.44,73534.8,-1.87,-2.67,-2.67,0,*5D
1506136075.59,56717,14.44,73520.0,-1.87,-2.67,-2.67,0,*5C
1506136076.86,56718,14.5,73524.0,-1.87,-2.67,-2.67,0,*53
1506136078.13,56719,14.44,73524.3,-1.87,-2.75,-2.75,0,*52
1506136079.39,56720,14.44,73524.8,-1.87,-2.67,-2.75,0,*5B
1506136080.66,56721,14.44,73520.8,-1.87,-2.67,-2.75,0,*5A
1506136081.85,56722,14.5,73520.5,-1.89,-2.83,-2.79,0,*51
1506136083.12,56723,14.44,73522.3,-1.87,-2.67,-2.75,0,*58
1506136084.38,56724,14.44,73528.5,-1.87,-2.67,-2.67,0,*5C
1506136085.65,56725,14.44,73524.0,-1.87,-2.75,-2.75,0,*5D
1506136086.89,56726,14.44,73518.3,-1.87,-2.67,-2.79,0,*51
1506136088.16,56727,14.44,73516.0,-1.87,-2.67,-2.67,0,*5F
1506136089.42,56728,14.44,73530.3,-1.87,-2.67,-2.67,0,*50
1506136090.69,56729,14.44,73524.8,-1.87,-2.67,-2.67,0,*51
1506136091.94,56730,14.44,73524.5,-1.89,-2.71,-2.71,0,*57
1506136093.21,56731,14.44,73528.3,-1.87,-2.75,-2.67,0,*5B
1506136094.46,56732,14.44,73534.5,-1.89,-2.71,-2.71,0,*55
1506136095.72,56733,14.5,73536.3,-1.87,-2.67,-2.67,0,*5A
1506136096.94,56734,14.44,73534.0,-1.89,-2.83,-2.75,0,*5A
1506136098.13,56735,14.44,73524.5,-1.89,-2.79,-2.79,0,*52
1506136099.36,56736,14.44,73526.0,-1.89,-2.79,-2.71,0,*59
1506136100.59,56737,14.44,73528.5,-1.87,-2.75,-2.79,0,*52
1506136101.86,56738,14.44,73532.3,-1.87,-2.75,-2.75,0,*51
1506136103.08,56739,14.44,73532.8,-1.87,-2.79,-2.79,0,*50
1506136104.27,56740,14.44,73532.8,-1.89,-2.79,-2.79,0,*50
1506136105.48,56741,14.44,73534.0,-1.87,-2.79,-2.79,0,*5F
1506136106.67,56742,14.44,73534.8,-1.89,-2.91,-2.83,0,*51
1506136107.86,56743,14.44,73538.5,-1.89,-2.79,-2.79,0,*53
1506136109.07,56744,14.44,73534.0,-1.89,-2.75,-2.79,0,*58
1506136110.29,56745,14.44,73542.0,-1.89,-2.71,-2.83,0,*58
1506136111.54,56746,14.44,73530.5,-1.87,-2.79,-2.67,0,*57
1506136112.73,56747,14.44,73528.8,-1.89,-2.79,-2.79,0,*57
1506136113.92,56748,14.44,73522.5,-1.89,-3.03,-3.07,0,*5C
1506136115.13,56749,14.44,73530.8,-1.87,-2.91,-2.91,0,*57
1506136116.32,56750,14.44,73524.3,-1.89,-2.91,-2.83,0,*52
1506136117.5,56751,14.44,73526.8,-1.89,-2.83,-2.91,0,*53
1506136118.72,56752,14.44,73526.0,-1.89,-2.71,-2.79,0,*5B